Hourly Weather Otradnoe

Today, 24 July, Saturday

Time Temperature Precipitation Wind Pressure Humidity
00:00 +17°C° 0 mm 2 mps 748 mmHg 84%
01:00 +17°C° 0 mm 2 mps 748 mmHg 83%
02:00 +17°C° 0 mm 2 mps 748 mmHg 84%
03:00 +17°C° 0 mm 2 mps 748 mmHg 83%
04:00 +17°C° 0 mm 2 mps 748 mmHg 83%
05:00 +17°C° 0 mm 2 mps 748 mmHg 83%
06:00 +18°C° 0 mm 2 mps 748 mmHg 78%
07:00 +20°C° 0 mm 2 mps 749 mmHg 74%
08:00 +21°C° 0 mm 3 mps 749 mmHg 67%
09:00 +24°C° 0 mm 3 mps 749 mmHg 61%
10:00 +25°C° 0 mm 3 mps 749 mmHg 55%
11:00 +26°C° 0 mm 3 mps 749 mmHg 49%
12:00 +26°C° 0 mm 2 mps 749 mmHg 50%
13:00 +26°C° 0 mm 2 mps 749 mmHg 50%
14:00 +26°C° 0 mm 2 mps 749 mmHg 51%
15:00 +26°C° 0 mm 2 mps 749 mmHg 52%
16:00 +26°C° 0 mm 2 mps 749 mmHg 53%
17:00 +26°C° 0 mm 1 mps 749 mmHg 54%
18:00 +25°C° 0 mm 1 mps 749 mmHg 60%
19:00 +23°C° 0 mm 1 mps 749 mmHg 65%
20:00 +22°C° 0 mm 1 mps 749 mmHg 70%
21:00 +22°C° 0 mm 1 mps 750 mmHg 71%
22:00 +21°C° 0 mm 1 mps 750 mmHg 71%
23:00 +21°C° 0 mm 1 mps 750 mmHg 72%

Tomorrow, 25 July, Sunday

Time Temperature Precipitation Wind Pressure Humidity
00:00 +21°C° 0 mm 1 mps 750 mmHg 73%
01:00 +20°C° 0 mm 1 mps 750 mmHg 74%
02:00 +20°C° 0 mm 1 mps 750 mmHg 75%
03:00 +20°C° 0 mm 1 mps 750 mmHg 75%
04:00 +18°C° 0 mm 0 mps 751 mmHg 76%
05:00 +18°C° 0 mm 0 mps 751 mmHg 76%
06:00 +19°C° 0 mm 0 mps 751 mmHg 73%
07:00 +22°C° 0 mm 1 mps 751 mmHg 70%
08:00 +23°C° 0 mm 1 mps 751 mmHg 67%
09:00 +24°C° 0 mm 1 mps 751 mmHg 61%
10:00 +26°C° 0 mm 1 mps 751 mmHg 55%
11:00 +27°C° 0 mm 1 mps 752 mmHg 50%
12:00 +26°C° 0.1 mm 1 mps 752 mmHg 53%
13:00 +26°C° 0.1 mm 2 mps 752 mmHg 55%
14:00 +25°C° 0.1 mm 2 mps 752 mmHg 58%
15:00 +25°C° 0 mm 2 mps 752 mmHg 61%
16:00 +24°C° 0 mm 2 mps 751 mmHg 63%
17:00 +23°C° 0 mm 1 mps 751 mmHg 66%
18:00 +23°C° 0 mm 1 mps 752 mmHg 66%
19:00 +22°C° 0 mm 1 mps 752 mmHg 66%
20:00 +22°C° 0 mm 1 mps 752 mmHg 66%
21:00 +21°C° 0 mm 2 mps 752 mmHg 67%
22:00 +20°C° 0 mm 2 mps 752 mmHg 68%
23:00 +20°C° 0 mm 2 mps 752 mmHg 69%

Day after tomorrow, 26 July, Monday

Time Temperature Precipitation Wind Pressure Humidity
00:00 +19°C° 0 mm 2 mps 752 mmHg 72%
01:00 +18°C° 0 mm 2 mps 752 mmHg 74%
02:00 +18°C° 0 mm 1 mps 752 mmHg 77%
03:00 +17°C° 0 mm 2 mps 752 mmHg 78%
04:00 +17°C° 0 mm 2 mps 752 mmHg 80%
05:00 +17°C° 0 mm 2 mps 753 mmHg 81%
06:00 +19°C° 0 mm 2 mps 753 mmHg 73%
07:00 +21°C° 0 mm 3 mps 753 mmHg 66%
08:00 +24°C° 0 mm 3 mps 753 mmHg 58%
09:00 +26°C° 0 mm 3 mps 753 mmHg 53%
10:00 +27°C° 0 mm 3 mps 753 mmHg 48%
11:00 +29°C° 0 mm 4 mps 753 mmHg 42%
12:00 +29°C° 0 mm 4 mps 753 mmHg 40%
13:00 +30°C° 0 mm 4 mps 752 mmHg 37%
14:00 +32°C° 0 mm 4 mps 752 mmHg 34%
15:00 +30°C° 0 mm 4 mps 752 mmHg 36%
16:00 +30°C° 0 mm 4 mps 752 mmHg 38%
17:00 +30°C° 0 mm 4 mps 751 mmHg 39%
18:00 +28°C° 0 mm 3 mps 751 mmHg 46%
19:00 +26°C° 0 mm 3 mps 751 mmHg 53%
20:00 +24°C° 0 mm 3 mps 751 mmHg 59%
21:00 +22°C° 0 mm 3 mps 752 mmHg 62%
22:00 +21°C° 0 mm 3 mps 752 mmHg 65%
23:00 +20°C° 0 mm 3 mps 752 mmHg 67%

27 July, Tuesday

Time Temperature Precipitation Wind Pressure Humidity
00:00 +20°C° 0 mm 3 mps 752 mmHg 69%
01:00 +20°C° 0 mm 3 mps 752 mmHg 70%
02:00 +19°C° 0 mm 3 mps 752 mmHg 72%
03:00 +19°C° 0 mm 3 mps 752 mmHg 72%
04:00 +19°C° 0 mm 3 mps 752 mmHg 72%
05:00 +19°C° 0 mm 3 mps 752 mmHg 73%
06:00 +21°C° 0 mm 4 mps 752 mmHg 67%
07:00 +22°C° 0 mm 4 mps 752 mmHg 62%
08:00 +25°C° 0 mm 5 mps 752 mmHg 56%
09:00 +27°C° 0 mm 5 mps 751 mmHg 51%
10:00 +29°C° 0 mm 5 mps 751 mmHg 47%
11:00 +30°C° 0 mm 6 mps 751 mmHg 42%
12:00 +32°C° 0 mm 6 mps 751 mmHg 39%
13:00 +33°C° 0 mm 6 mps 750 mmHg 37%
14:00 +34°C° 0 mm 6 mps 750 mmHg 34%
15:00 +33°C° 0 mm 6 mps 750 mmHg 37%
16:00 +33°C° 0 mm 5 mps 749 mmHg 39%
17:00 +33°C° 0 mm 5 mps 749 mmHg 41%
18:00 +29°C° 0.2 mm 4 mps 749 mmHg 52%
19:00 +27°C° 0.2 mm 4 mps 749 mmHg 62%
20:00 +23°C° 0.2 mm 4 mps 749 mmHg 73%
21:00 +22°C° 0.4 mm 3 mps 749 mmHg 79%
22:00 +21°C° 0.4 mm 2 mps 749 mmHg 86%
23:00 +20°C° 0.4 mm 2 mps 748 mmHg 92%

28 July, Wednesday

Time Temperature Precipitation Wind Pressure Humidity
00:00 +20°C° 0.1 mm 2 mps 748 mmHg 93%
01:00 +20°C° 0.1 mm 2 mps 748 mmHg 94%
02:00 +20°C° 0.1 mm 2 mps 748 mmHg 95%
03:00 +20°C° 0.1 mm 2 mps 747 mmHg 96%
04:00 +20°C° 0.1 mm 3 mps 747 mmHg 96%
05:00 +20°C° 0.1 mm 3 mps 747 mmHg 97%
06:00 +20°C° 0.1 mm 3 mps 747 mmHg 96%
07:00 +21°C° 0.1 mm 3 mps 747 mmHg 94%
08:00 +21°C° 0.1 mm 3 mps 747 mmHg 93%
09:00 +22°C° 0.2 mm 3 mps 747 mmHg 89%
10:00 +24°C° 0.2 mm 3 mps 747 mmHg 85%
11:00 +24°C° 0.2 mm 2 mps 747 mmHg 81%
12:00 +26°C° 0.2 mm 3 mps 746 mmHg 73%
13:00 +27°C° 0.2 mm 3 mps 746 mmHg 66%
14:00 +29°C° 0.2 mm 3 mps 746 mmHg 58%
15:00 +29°C° 0.1 mm 3 mps 746 mmHg 58%
16:00 +29°C° 0.1 mm 3 mps 746 mmHg 59%
17:00 +28°C° 0.1 mm 3 mps 746 mmHg 59%
18:00 +27°C° 0 mm 3 mps 746 mmHg 65%
19:00 +26°C° 0 mm 2 mps 746 mmHg 70%
20:00 +24°C° 0 mm 2 mps 746 mmHg 76%
21:00 +23°C° 0 mm 1 mps 746 mmHg 79%
22:00 +22°C° 0 mm 1 mps 746 mmHg 83%
23:00 +21°C° 0 mm 1 mps 746 mmHg 87%

29 July, Thursday

Time Temperature Precipitation Wind Pressure Humidity
00:00 +21°C° 0 mm 1 mps 746 mmHg 87%
01:00 +21°C° 0 mm 1 mps 746 mmHg 87%
02:00 +20°C° 0 mm 1 mps 746 mmHg 87%
03:00 +20°C° 0 mm 1 mps 746 mmHg 87%
04:00 +20°C° 0 mm 1 mps 746 mmHg 87%
05:00 +20°C° 0 mm 1 mps 746 mmHg 87%
06:00 +22°C° 0 mm 1 mps 746 mmHg 79%
07:00 +24°C° 0 mm 1 mps 746 mmHg 72%
08:00 +26°C° 0 mm 2 mps 747 mmHg 65%
09:00 +27°C° 0 mm 2 mps 747 mmHg 60%
10:00 +29°C° 0 mm 2 mps 747 mmHg 55%
11:00 +30°C° 0 mm 2 mps 747 mmHg 50%
12:00 +31°C° 0 mm 3 mps 747 mmHg 48%
13:00 +31°C° 0 mm 3 mps 747 mmHg 46%
14:00 +33°C° 0 mm 3 mps 746 mmHg 44%
15:00 +30°C° 0.6 mm 3 mps 746 mmHg 52%
16:00 +28°C° 0.6 mm 3 mps 746 mmHg 60%
17:00 +27°C° 0.6 mm 3 mps 746 mmHg 68%
18:00 +26°C° 0.9 mm 3 mps 746 mmHg 72%
19:00 +24°C° 0.9 mm 2 mps 747 mmHg 75%
20:00 +23°C° 0.9 mm 2 mps 747 mmHg 79%
21:00 +23°C° 0 mm 2 mps 747 mmHg 81%
22:00 +21°C° 0 mm 2 mps 747 mmHg 84%
23:00 +20°C° 0 mm 2 mps 747 mmHg 86%
Show more